User: anonymous   Login
Location: Glion
(46.4330°N, 6.9246°E)
Time: 23:20:14
(UTC+00:00)
Language:

Meteor 1-20 Rocket - Orbit

View from above orbital plane
View from above orbital plane
View from above satellite
View from above satellite

Ground track
Ground track

The orbit data is extracted from the following two-line orbital elements,

1  7575U 74099B   21128.41087388  .00000122  00000-0  60062-4 0  9999
2  7575  81.2480   8.0863 0049580 199.8196 160.1050 14.11087514387129
Epoch (UTC): 08 May 2021 09:51:39
Eccentricity: 0.0049580
inclination: 81.2480°
perigee height: 820 km
apogee height: 891 km
right ascension of ascending node: 8.0863°
argument of perigee: 199.8196°
revolutions per day: 14.11087514
mean anomaly at epoch: 160.1050°
orbit number at epoch: 38712

The dashed part of the orbit path shows where the satellite is in the earth's shadow,  

DLR